| time (UTC) | temp F | wind direction | speed MPH | gust MPH | rain 1hr in | rain 24hr in | rain mn in | humidity % | barometer mb |
| 20260504011503 | 45 | 261 | 0.0 | 0.0 | 0.00 | 0.00 | 0.00 | 95 | 1005.6 |
| 20260504010004 | 45 | 261 | 0.0 | 0.0 | 0.00 | 0.00 | 0.00 | 95 | 1005.6 |
| 20260504003004 | 45 | 261 | 0.0 | 3.0 | 0.00 | 0.00 | 0.00 | 94 | 1006.0 |
| 20260504000004 | 45 | 8 | 3.0 | 6.0 | 0.00 | 0.00 | 0.00 | 95 | 1006.8 |
| 20260503233003 | 44 | 180 | 0.0 | 0.0 | 0.00 | 0.00 | 0.00 | 94 | 1006.8 |
| 20260503231504 | 44 | 180 | 0.0 | 6.0 | 0.00 | 0.00 | 0.00 | 95 | 1006.8 |
| 20260503230003 | 42 | 178 | 2.0 | 6.0 | 0.00 | 0.00 | 0.00 | 94 | 1006.8 |
| 20260503223004 | 42 | 41 | 0.0 | 0.0 | 0.00 | 0.00 | 0.00 | 93 | 1006.7 |
| 20260503221504 | 42 | 41 | 0.0 | 0.0 | 0.00 | 0.00 | 0.00 | 93 | 1006.7 |
| 20260503220004 | 43 | 41 | 0.0 | 0.0 | 0.00 | 0.00 | 0.00 | 92 | 1007.1 |
| 20260503214504 | 43 | 41 | 0.0 | 0.0 | 0.00 | 0.00 | 0.00 | 92 | 1007.2 |
| 20260503213004 | 43 | 41 | 0.0 | 0.0 | 0.00 | 0.00 | 0.00 | 91 | 1007.2 |
| 20260503210003 | 44 | 41 | 0.0 | 0.0 | 0.00 | 0.00 | 0.00 | 90 | 1007.6 |
| 20260503204504 | 45 | 41 | 0.0 | 0.0 | 0.00 | 0.00 | 0.00 | 88 | 1007.6 |
| 20260503201503 | 47 | 41 | 0.0 | 0.0 | 0.00 | 0.00 | 0.00 | 86 | 1007.7 |
| 20260503200004 | 48 | 41 | 0.0 | 0.0 | 0.00 | 0.00 | 0.00 | 86 | 1007.7 |
| 20260503194503 | 48 | 41 | 0.0 | 0.0 | 0.00 | 0.00 | 0.00 | 85 | 1007.9 |
| 20260503193004 | 49 | 41 | 0.0 | 0.0 | 0.00 | 0.00 | 0.00 | 84 | 1007.7 |
| 20260503191504 | 49 | 40 | 0.0 | 0.0 | 0.00 | 0.00 | 0.00 | 84 | 1007.7 |
| 20260503190004 | 49 | 40 | 0.0 | 0.0 | 0.00 | 0.00 | 0.00 | 84 | 1007.5 |
| 20260503184503 | 49 | 39 | 0.0 | 0.0 | 0.00 | 0.00 | 0.00 | 84 | 1007.5 |
| 20260503183004 | 50 | 39 | 0.0 | 0.0 | 0.00 | 0.00 | 0.00 | 82 | 1007.6 |
| 20260503181504 | 51 | 39 | 0.0 | 3.0 | 0.00 | 0.00 | 0.00 | 82 | 1007.4 |
| 20260503180004 | 51 | 39 | 0.0 | 3.0 | 0.00 | 0.00 | 0.00 | 82 | 1007.1 |
| 20260503174503 | 51 | 29 | 0.0 | 6.0 | 0.00 | 0.00 | 0.00 | 80 | 1007.0 |
| 20260503173005 | 52 | 38 | 2.0 | 6.0 | 0.00 | 0.00 | 0.00 | 80 | 1007.0 |
| 20260503171504 | 52 | 10 | 3.0 | 6.0 | 0.00 | 0.00 | 0.00 | 80 | 1007.0 |
| 20260503071503 | 69 | 251 | 5.0 | 17.0 | 0.00 | 0.00 | 0.00 | 57 | 1007.7 |
| 20260503054504 | 62 | 238 | 5.0 | 8.0 | 0.00 | 0.00 | 0.00 | 64 | 1008.0 |
| 20260503053004 | 61 | 244 | 3.0 | 8.0 | 0.00 | 0.00 | 0.00 | 65 | 1008.0 |
| 20260503051503 | 60 | 243 | 2.0 | 7.0 | 0.00 | 0.00 | 0.00 | 66 | 1008.1 |
| 20260503050003 | 58 | 243 | 5.0 | 7.0 | 0.00 | 0.00 | 0.00 | 69 | 1008.1 |
| 20260503044504 | 55 | 235 | 3.0 | 6.0 | 0.00 | 0.00 | 0.00 | 78 | 1008.1 |
| 20260503043004 | 52 | 232 | 3.0 | 5.0 | 0.00 | 0.00 | 0.00 | 84 | 1008.1 |
| 20260503041504 | 50 | 221 | 1.0 | 3.0 | 0.00 | 0.00 | 0.00 | 85 | 1008.1 |
| 20260503040004 | 49 | 218 | 0.0 | 3.0 | 0.00 | 0.00 | 0.00 | 83 | 1008.1 |
| 20260503034504 | 49 | 232 | 0.0 | 3.0 | 0.00 | 0.00 | 0.00 | 81 | 1008.0 |
| 20260503031503 | 52 | 230 | 1.0 | 3.0 | 0.00 | 0.00 | 0.00 | 76 | 1008.0 |
| 20260503030003 | 54 | 230 | 2.0 | 3.0 | 0.00 | 0.00 | 0.00 | 73 | 1008.2 |
| 20260503024503 | 55 | 229 | 2.0 | 6.0 | 0.00 | 0.00 | 0.00 | 70 | 1008.2 |
| 20260503023003 | 57 | 212 | 3.0 | 6.0 | 0.00 | 0.00 | 0.00 | 66 | 1008.2 |
| 20260503021503 | 57 | 212 | 3.0 | 7.0 | 0.00 | 0.00 | 0.00 | 65 | 1008.2 |
| 20260503020004 | 57 | 228 | 4.0 | 7.0 | 0.00 | 0.00 | 0.00 | 65 | 1008.4 |
| 20260503014504 | 58 | 229 | 2.0 | 7.0 | 0.00 | 0.00 | 0.00 | 64 | 1008.4 |
| 20260503013004 | 57 | 216 | 4.0 | 8.0 | 0.00 | 0.00 | 0.00 | 65 | 1008.6 |